Home   Weather   Winnipeg   Past weeks
Flag for Canada

Past Weather in Winnipeg, Manitoba, Canada — Yesterday and Last 2 Weeks

Now
68 °F

Mild.


Feels Like: 68 °F
Forecast: 74 / 52 °F
Wind: 5 mph from North

Location: Winnipeg The Forks Man

Current Time: Jul 20, 2019 at 9:40:10 pm

Latest Report: Jul 20, 2019 at 9:00 pm


Visibility: N/A

Pressure: 30.00 "Hg

Humidity: 57%

Dew Point: 53 °F

Location of WinnipegLocation

Past Weather in Winnipeg — Graph

°F

Winnipeg Temperature Yesterday

Maximum temperature yesterday: 80 °F (at 2:00 pm)
Minimum temperature yesterday: 64 °F (at 6:00 am)
Average temperature yesterday: 72 °F

High & Low Weather Summary for the Past Weeks

 TemperatureHumidityPressure
High87 °F (Jul 14, 7:00 pm)95% (Jul 10, 3:00 am)30.31 "Hg (Jul 10, 3:00 am)
Low53 °F (Jul 6, 7:00 am)29% (Jul 7, 6:00 pm)29.46 "Hg (Jul 18, 7:00 pm)
Average72 °F64%29.83 "Hg
* Reported Jul 5 8:00 pm — Jul 20 8:00 pm, Winnipeg. Weather by CustomWeather, © 2019

Note: Actual official high and low records may vary slightly from our data, if they occured in-between our weather recording intervals... More about our weather records

Advertising

Winnipeg Weather History for the Previous 24 Hours

Scroll right to see more
 ConditionsComfort  
Time TempWeatherWind HumidityBarometerVisibility
8:00 pm
Sat, Jul 20
70 °FMild.5 mph59%29.99 "HgN/A
7:00 pm72 °FMild.3 mph56%29.97 "HgN/A
6:00 pm71 °FMild.6 mph55%29.96 "HgN/A
5:00 pm71 °FMild.8 mph53%29.95 "HgN/A
4:00 pm71 °FMild.5 mph53%29.93 "HgN/A
3:00 pm67 °FMild.7 mph67%29.93 "HgN/A
2:00 pm74 °FMild.5 mph55%29.88 "HgN/A
1:00 pm69 °FMild.2 mph58%29.88 "HgN/A
12:00 pm71 °FMild.5 mph53%29.87 "HgN/A
11:00 am68 °FMild.5 mph62%29.86 "HgN/A
10:00 am67 °FMild.6 mph65%29.84 "HgN/A
9:00 am65 °FMild.3 mph68%29.82 "HgN/A
8:00 am60 °FCool.5 mph76%29.82 "HgN/A
7:00 am61 °FCool.2 mph65%29.81 "HgN/A
6:00 am60 °FCool.3 mph67%29.81 "HgN/A
5:00 am64 °FMild.3 mph58%29.78 "HgN/A
4:00 am63 °FMild.3 mph67%29.77 "HgN/A
3:00 am63 °FMild.3 mph67%29.76 "HgN/A
2:00 am62 °FCool.3 mph69%29.75 "HgN/A
1:00 am65 °FMild.3 mph62%29.74 "HgN/A
12:00 am66 °FMild.3 mph57%29.72 "HgN/A
11:00 pm
Fri, Jul 19
69 °FMild.6 mph54%29.72 "HgN/A
10:00 pm70 °FMild.5 mph53%29.71 "HgN/A
9:00 pm73 °FMild.5 mph42%29.70 "HgN/A
Weather by CustomWeather, © 2019

See weather overview